When you browse on this site, cookies collect data to enhance your experience and personalize the content and advertising you see.
Visit our Privacy Policy to learn more. By continuing to use the site, you agree to this use of cookies and data.
  • en France
  • Liste des pays
  • À 7 jours
  • Température de l'eau
  • Carte satellitaire
  • Carte météo
  • Widgets météo
  • user-avatar
    Se connecter

    Météo par heure à Bunbury

    Ce jour, 22 Juillet, Lundi

    Heure Température Précipitation Vent Pression Humidité
    00:00 +11°C° 0 mm 7 m/s 761 mmHg 85%
    01:00 +10°C° 0 mm 6 m/s 761 mmHg 84%
    02:00 +9°C° 0 mm 5 m/s 761 mmHg 84%
    03:00 +9°C° 0 mm 5 m/s 761 mmHg 84%
    04:00 +9°C° 0 mm 5 m/s 761 mmHg 83%
    05:00 +9°C° 0 mm 5 m/s 762 mmHg 83%
    06:00 +10°C° 0 mm 5 m/s 762 mmHg 82%
    07:00 +10°C° 0 mm 5 m/s 763 mmHg 81%
    08:00 +11°C° 0 mm 4 m/s 763 mmHg 80%
    09:00 +12°C° 0 mm 4 m/s 763 mmHg 78%
    10:00 +12°C° 0 mm 4 m/s 764 mmHg 75%
    11:00 +13°C° 0 mm 4 m/s 764 mmHg 73%
    12:00 +13°C° 0 mm 4 m/s 764 mmHg 72%
    13:00 +13°C° 0 mm 4 m/s 763 mmHg 71%
    14:00 +14°C° 0 mm 4 m/s 763 mmHg 70%
    15:00 +13°C° 0.1 mm 4 m/s 763 mmHg 73%
    16:00 +13°C° 0.1 mm 4 m/s 764 mmHg 76%
    17:00 +13°C° 0.1 mm 4 m/s 764 mmHg 79%
    18:00 +12°C° 0 mm 4 m/s 764 mmHg 79%
    19:00 +12°C° 0 mm 4 m/s 765 mmHg 80%
    20:00 +12°C° 0 mm 4 m/s 765 mmHg 80%
    21:00 +12°C° 0 mm 3 m/s 765 mmHg 80%
    22:00 +12°C° 0 mm 2 m/s 766 mmHg 81%
    23:00 +12°C° 0 mm 2 m/s 766 mmHg 81%

    Demain, 23 Juillet, Mardi

    Heure Température Précipitation Vent Pression Humidité
    00:00 +12°C° 0 mm 2 m/s 766 mmHg 82%
    01:00 +12°C° 0 mm 2 m/s 766 mmHg 83%
    02:00 +12°C° 0 mm 2 m/s 766 mmHg 84%
    03:00 +12°C° 0 mm 2 m/s 766 mmHg 86%
    04:00 +11°C° 0 mm 1 m/s 766 mmHg 88%
    05:00 +11°C° 0 mm 1 m/s 766 mmHg 90%
    06:00 +10°C° 0.1 mm 2 m/s 766 mmHg 89%
    07:00 +12°C° 0.1 mm 2 m/s 766 mmHg 89%
    08:00 +12°C° 0.1 mm 2 m/s 766 mmHg 89%
    09:00 +13°C° 0 mm 2 m/s 767 mmHg 87%
    10:00 +14°C° 0 mm 2 m/s 767 mmHg 84%
    11:00 +15°C° 0 mm 2 m/s 767 mmHg 81%
    12:00 +16°C° 0 mm 2 m/s 767 mmHg 79%
    13:00 +16°C° 0 mm 2 m/s 766 mmHg 77%
    14:00 +17°C° 0 mm 2 m/s 766 mmHg 75%
    15:00 +16°C° 0 mm 2 m/s 766 mmHg 79%
    16:00 +16°C° 0 mm 1 m/s 766 mmHg 83%
    17:00 +15°C° 0 mm 1 m/s 766 mmHg 86%
    18:00 +15°C° 0 mm 1 m/s 767 mmHg 87%
    19:00 +14°C° 0 mm 1 m/s 767 mmHg 88%
    20:00 +13°C° 0 mm 0 m/s 767 mmHg 89%
    21:00 +14°C° 0 mm 1 m/s 767 mmHg 88%
    22:00 +14°C° 0 mm 1 m/s 767 mmHg 88%
    23:00 +14°C° 0 mm 1 m/s 767 mmHg 88%

    Après-demain, 24 Juillet, Mercredi

    Heure Température Précipitation Vent Pression Humidité
    00:00 +14°C° 0 mm 1 m/s 767 mmHg 89%
    01:00 +14°C° 0 mm 2 m/s 766 mmHg 89%
    02:00 +13°C° 0 mm 3 m/s 766 mmHg 90%
    03:00 +13°C° 0.1 mm 3 m/s 766 mmHg 90%
    04:00 +13°C° 0.1 mm 3 m/s 766 mmHg 91%
    05:00 +13°C° 0.1 mm 3 m/s 766 mmHg 92%
    06:00 +13°C° 0.3 mm 3 m/s 766 mmHg 92%
    07:00 +13°C° 0.3 mm 4 m/s 766 mmHg 91%
    08:00 +13°C° 0.3 mm 4 m/s 766 mmHg 91%
    09:00 +14°C° 0.2 mm 4 m/s 766 mmHg 89%
    10:00 +14°C° 0.2 mm 5 m/s 766 mmHg 87%
    11:00 +15°C° 0.2 mm 5 m/s 766 mmHg 86%
    12:00 +15°C° 0.1 mm 6 m/s 765 mmHg 82%
    13:00 +15°C° 0.1 mm 6 m/s 765 mmHg 79%
    14:00 +16°C° 0.1 mm 7 m/s 764 mmHg 75%
    15:00 +15°C° 0.1 mm 7 m/s 764 mmHg 77%
    16:00 +15°C° 0.1 mm 7 m/s 764 mmHg 78%
    17:00 +15°C° 0.1 mm 7 m/s 764 mmHg 80%
    18:00 +14°C° 0.1 mm 6 m/s 765 mmHg 81%
    19:00 +13°C° 0.1 mm 5 m/s 765 mmHg 82%
    20:00 +13°C° 0.1 mm 5 m/s 765 mmHg 83%
    21:00 +12°C° 0.1 mm 4 m/s 765 mmHg 84%
    22:00 +12°C° 0.1 mm 4 m/s 765 mmHg 84%
    23:00 +12°C° 0.1 mm 4 m/s 765 mmHg 85%

    25 Juillet, Jeudi

    Heure Température Précipitation Vent Pression Humidité
    00:00 +12°C° 0.1 mm 4 m/s 765 mmHg 85%
    01:00 +12°C° 0.1 mm 4 m/s 765 mmHg 86%
    02:00 +12°C° 0.1 mm 4 m/s 765 mmHg 86%
    03:00 +12°C° 0.2 mm 4 m/s 765 mmHg 87%
    04:00 +12°C° 0.2 mm 4 m/s 766 mmHg 88%
    05:00 +10°C° 0.2 mm 5 m/s 766 mmHg 89%
    06:00 +10°C° 0 mm 5 m/s 766 mmHg 89%
    07:00 +10°C° 0 mm 4 m/s 767 mmHg 88%
    08:00 +10°C° 0 mm 4 m/s 767 mmHg 87%
    09:00 +11°C° 0 mm 4 m/s 767 mmHg 82%
    10:00 +12°C° 0 mm 4 m/s 768 mmHg 76%
    11:00 +13°C° 0 mm 4 m/s 768 mmHg 70%
    12:00 +13°C° 0 mm 3 m/s 767 mmHg 66%
    13:00 +15°C° 0 mm 2 m/s 767 mmHg 62%
    14:00 +15°C° 0 mm 1 m/s 767 mmHg 58%
    15:00 +15°C° 0 mm 1 m/s 767 mmHg 62%
    16:00 +14°C° 0 mm 1 m/s 767 mmHg 67%
    17:00 +13°C° 0 mm 2 m/s 767 mmHg 72%
    18:00 +12°C° 0 mm 2 m/s 767 mmHg 74%
    19:00 +10°C° 0 mm 2 m/s 767 mmHg 77%
    20:00 +9°C° 0 mm 2 m/s 768 mmHg 79%
    21:00 +9°C° 0 mm 2 m/s 768 mmHg 78%
    22:00 +9°C° 0 mm 2 m/s 767 mmHg 78%
    23:00 +9°C° 0 mm 2 m/s 767 mmHg 77%

    26 Juillet, Vendredi

    Heure Température Précipitation Vent Pression Humidité
    00:00 +9°C° 0 mm 2 m/s 767 mmHg 77%
    01:00 +11°C° 0 mm 1 m/s 767 mmHg 78%
    02:00 +11°C° 0 mm 1 m/s 766 mmHg 78%
    03:00 +10°C° 0 mm 1 m/s 766 mmHg 79%
    04:00 +10°C° 0 mm 1 m/s 766 mmHg 80%
    05:00 +9°C° 0 mm 0 m/s 765 mmHg 81%
    06:00 +11°C° 0 mm 1 m/s 765 mmHg 81%
    07:00 +11°C° 0 mm 1 m/s 766 mmHg 82%
    08:00 +11°C° 0 mm 1 m/s 766 mmHg 83%
    09:00 +12°C° 0 mm 1 m/s 766 mmHg 78%
    10:00 +13°C° 0 mm 1 m/s 765 mmHg 72%
    11:00 +14°C° 0 mm 1 m/s 765 mmHg 66%
    12:00 +14°C° 0 mm 1 m/s 765 mmHg 65%
    13:00 +14°C° 0 mm 2 m/s 764 mmHg 64%
    14:00 +15°C° 0 mm 2 m/s 764 mmHg 63%
    15:00 +14°C° 0 mm 2 m/s 764 mmHg 66%
    16:00 +14°C° 0 mm 2 m/s 764 mmHg 69%
    17:00 +13°C° 0 mm 2 m/s 764 mmHg 72%
    18:00 +11°C° 0 mm 3 m/s 765 mmHg 76%
    19:00 +10°C° 0 mm 4 m/s 765 mmHg 80%
    20:00 +8°C° 0 mm 5 m/s 766 mmHg 83%
    21:00 +8°C° 0 mm 4 m/s 766 mmHg 84%
    22:00 +7°C° 0 mm 4 m/s 766 mmHg 84%
    23:00 +7°C° 0 mm 4 m/s 766 mmHg 84%

    27 Juillet, Samedi

    Heure Température Précipitation Vent Pression Humidité
    00:00 +7°C° 0 mm 4 m/s 766 mmHg 84%
    01:00 +7°C° 0 mm 4 m/s 766 mmHg 83%
    02:00 +7°C° 0 mm 4 m/s 766 mmHg 83%
    03:00 +6°C° 0 mm 4 m/s 766 mmHg 83%
    04:00 +7°C° 0 mm 3 m/s 766 mmHg 84%
    05:00 +7°C° 0 mm 3 m/s 765 mmHg 84%
    06:00 +7°C° 0 mm 3 m/s 766 mmHg 83%
    07:00 +7°C° 0 mm 3 m/s 766 mmHg 82%
    08:00 +7°C° 0 mm 3 m/s 767 mmHg 81%
    09:00 +8°C° 0 mm 3 m/s 767 mmHg 74%
    10:00 +10°C° 0 mm 3 m/s 767 mmHg 68%
    11:00 +12°C° 0 mm 3 m/s 767 mmHg 61%
    12:00 +12°C° 0 mm 3 m/s 766 mmHg 59%
    13:00 +13°C° 0 mm 3 m/s 766 mmHg 57%
    14:00 +15°C° 0 mm 2 m/s 765 mmHg 55%
    15:00 +14°C° 0 mm 2 m/s 765 mmHg 59%
    16:00 +13°C° 0 mm 3 m/s 766 mmHg 63%
    17:00 +12°C° 0 mm 3 m/s 766 mmHg 66%
    18:00 +11°C° 0 mm 3 m/s 766 mmHg 69%
    19:00 +10°C° 0 mm 3 m/s 767 mmHg 71%
    20:00 +8°C° 0 mm 3 m/s 767 mmHg 73%
    21:00 +8°C° 0 mm 3 m/s 767 mmHg 74%
    22:00 +8°C° 0 mm 3 m/s 767 mmHg 75%
    23:00 +7°C° 0 mm 3 m/s 767 mmHg 76%
    Voir plus